New York, NY

1:42 PM EDT on April 25, 2017 (GMT -0400)
La Guardia

Weather History for KLGA - October, 2010

Change the Weather History Date:

Friday, October 29, 2010

  Actual Average Record
Temperature  
Mean Temperature 54 °F 54 °F  
Max Temperature 59 °F 61 °F 77 °F (1946)
Min Temperature 49 °F 47 °F 31 °F (1941)
Degree Days  
Heating Degree Days 11 11  
Month to date heating degree days 138 213  
Since 1 July heating degree days 138 248  
Cooling Degree Days 0 0  
Month to date cooling degree days 22 20  
Year to date cooling degree days 1721 1210  
Growing Degree Days 4 (Base 50)    
Moisture  
Dew Point 35 °F    
Average Humidity 48    
Maximum Humidity 55    
Minimum Humidity 41    
Precipitation  
Precipitation 0.00 in 0.11 in 2.45 in (1973)
Month to date precipitation 4.61 3.55  
Year to date precipitation 35.73 37.53  
Snow  
Snow 0.00 in 0.00 in 1.70 in (2011)
Month to date snowfall 0.0 0.0  
Since 1 July snowfall 0.0 0.0  
Snow Depth 0.00 in    
Sea Level Pressure  
Sea Level Pressure 29.96 in    
Wind  
Wind Speed 17 mph (NW)    
Max Wind Speed 29 mph    
Max Gust Speed 35 mph    
Visibility 10 miles    
Events      
T = Trace of Precipitation, MM = Missing Value Source: NWS Daily Summary

Daily Weather History Graph

Daily Weather History Graph

Search for Another Location

Airport or City:

Trip Planner

Search our weather history database for the weather conditions in past years. The results will help you decide how hot, cold, wet, or windy it might be!

Date:

Astronomy

Oct. 29, 2010 Rise Set
Actual Time 7:22 AM EDT 5:55 PM EDT
Civil Twilight 6:54 AM EDT 6:23 PM EDT
Nautical Twilight 6:21 AM EDT 6:55 PM EDT
Astronomical Twilight 5:49 AM EDT 7:27 PM EDT
Moon 11:33 PM EDT (10/29) 1:22 PM EDT (10/29)
Length of Visible Light 11h 29m
Length of Day
10h 33m
Waning Gibbous, 60% of the Moon is Illuminated
Oct 29
Waning Gibbous
Oct 30
Last Quarter
Nov 6
New
Nov 13
First Quarter
Nov 21
Full

Hourly Weather History & Observations

Time (EDT) Temp. Dew Point Humidity Pressure Visibility Wind Dir Wind Speed Gust Speed Precip Events Conditions
12:51 AM 59.0 °F 39.0 °F 48% 29.89 in 10.0 mi NNW 9.2 mph - N/A   Clear
1:51 AM 57.9 °F 37.0 °F 46% 29.89 in 10.0 mi NW 13.8 mph - N/A   Clear
2:51 AM 55.9 °F 37.0 °F 49% 29.91 in 10.0 mi NNW 9.2 mph - N/A   Clear
3:51 AM 55.0 °F 37.0 °F 51% 29.91 in 10.0 mi NNW 11.5 mph - N/A   Clear
4:51 AM 54.0 °F 37.0 °F 53% 29.92 in 10.0 mi NW 15.0 mph 23.0 mph N/A   Clear
5:51 AM 53.1 °F 37.9 °F 57% 29.93 in 10.0 mi NW 15.0 mph - N/A   Partly Cloudy
6:51 AM 54.0 °F 37.9 °F 55% 29.94 in 10.0 mi NW 13.8 mph - N/A   Mostly Cloudy
7:51 AM 54.0 °F 37.9 °F 55% 29.96 in 10.0 mi NW 12.7 mph - N/A   Mostly Cloudy
8:51 AM 54.0 °F 37.0 °F 53% 29.97 in 10.0 mi WNW 10.4 mph - N/A   Overcast
9:51 AM 54.0 °F 37.9 °F 55% 29.98 in 10.0 mi WNW 12.7 mph - N/A   Overcast
10:51 AM 54.0 °F 37.9 °F 55% 29.97 in 10.0 mi WNW 19.6 mph 26.5 mph N/A   Overcast
11:51 AM 55.0 °F 39.0 °F 55% 29.95 in 10.0 mi NW 12.7 mph 20.7 mph N/A   Mostly Cloudy
12:51 PM 55.9 °F 37.0 °F 49% 29.94 in 10.0 mi NW 21.9 mph 27.6 mph N/A   Mostly Cloudy
1:51 PM 55.9 °F 35.1 °F 45% 29.93 in 10.0 mi NW 24.2 mph 31.1 mph N/A   Overcast
2:51 PM 55.0 °F 37.0 °F 51% 29.94 in 10.0 mi NW 21.9 mph 28.8 mph N/A   Overcast
3:51 PM 55.9 °F 34.0 °F 44% 29.94 in 10.0 mi WNW 23.0 mph 29.9 mph N/A   Mostly Cloudy
4:51 PM 55.9 °F 33.1 °F 42% 29.95 in 10.0 mi NW 21.9 mph 32.2 mph N/A   Mostly Cloudy
5:51 PM 55.0 °F 32.0 °F 42% 29.96 in 10.0 mi NW 18.4 mph 29.9 mph N/A   Mostly Cloudy
6:51 PM 53.1 °F 30.9 °F 43% 30.00 in 10.0 mi NW 23.0 mph - N/A   Scattered Clouds
7:51 PM 52.0 °F 30.0 °F 43% 30.03 in 10.0 mi NW 20.7 mph 33.4 mph N/A   Partly Cloudy
8:51 PM 51.1 °F 28.9 °F 43% 30.04 in 10.0 mi NW 19.6 mph 32.2 mph N/A   Clear
9:51 PM 50.0 °F 28.0 °F 43% 30.05 in 10.0 mi NW 13.8 mph - N/A   Partly Cloudy
10:51 PM 50.0 °F 28.9 °F 44% 30.05 in 10.0 mi NW 21.9 mph 28.8 mph N/A   Clear
11:51 PM 50.0 °F 28.0 °F 43% 30.06 in 10.0 mi WNW 13.8 mph - N/A   Clear